Volver al catálogo

OPS 4682 DEB

ActivoPO
NORAD 59151·DEBRIS·🇺🇸 United States

Lanzado Apr 3, 1965 desde Vandenberg Space Force Base

Loading…

Próximos Pases (próximas 24 horas)

TLE

EnvejeciendoSource: Space-Track

Época: Sep 10, 2026, 13:20 UTC

1 59151U 65027HT  26253.55599681 -.00000188  00000-0 -66390-3 0  9993
2 59151  90.2405   3.0615 0036518 198.7771 161.2005 12.98139548474832

Sigue OPS 4682 DEB en tiempo real con AllMySat

Download on the App Store